Weather History for KLEX - October, 2013

Change the Weather History Date:

Wednesday, October 2, 2013

  Actual Average Record
Temperature  
Mean Temperature 72 °F 62 °F  
Max Temperature 82 °F 72 °F 91 °F (1953)
Min Temperature 61 °F 51 °F 31 °F (1974)
Degree Days  
Heating Degree Days 0 5  
Month to date heating degree days 0 10  
Since 1 July heating degree days 20 64  
Cooling Degree Days 7 2  
Month to date cooling degree days 10 4  
Year to date cooling degree days 1211 1167  
Growing Degree Days 22 (Base 50)    
Moisture  
Dew Point 64 °F    
Average Humidity 78    
Maximum Humidity 93    
Minimum Humidity 62    
Precipitation  
Precipitation T in 0.09 in 2.39 in (1962)
Month to date precipitation T 0.19  
Year to date precipitation 45.27 34.77  
Snow  
Snow 0.00 in 0.00 in 0.00 in ()
Month to date snowfall 0.0 0.0  
Since 1 July snowfall 0.0 0.0  
Since 1 September snowfall 0.0 0.0  
Snow Depth 0.00 in    
Sea Level Pressure  
Sea Level Pressure 30.10 in    
Wind  
Wind Speed 5 mph (South)    
Max Wind Speed 13 mph    
Max Gust Speed 19 mph    
Visibility 10 miles    
Events      
T = Trace of Precipitation, MM = Missing Value Source: NWS Daily Summary

Daily Weather History Graph

Daily Weather History Graph

Search for Another Location

Airport or City:

Trip Planner

Search our weather history database for the weather conditions in past years. The results will help you decide how hot, cold, wet, or windy it might be!

Date:

Astronomy

Oct. 02, 2013 Rise Set
Actual Time 7:35 AM EDT 7:19 PM EDT
Civil Twilight 7:08 AM EDT 7:45 PM EDT
Nautical Twilight 6:38 AM EDT 8:16 PM EDT
Astronomical Twilight 6:07 AM EDT 8:46 PM EDT
Moon 5:09 AM EDT (10/2) 5:53 PM EDT (10/2)
Length of Visible Light 12h 36m
Length of Day
11h 44m
Waning Crescent, 6% of the Moon is Illuminated
Oct 2
Waning Crescent
Oct 4
New
Oct 11
First Quarter
Oct 18
Full
Oct 26
Last Quarter

Hourly Weather History & Observations

Time (EDT) Temp. Heat Index Dew Point Humidity Pressure Visibility Wind Dir Wind Speed Gust Speed Precip Events Conditions
12:54 AM 64.0 °F - 61.0 °F 90% 30.08 in 10.0 mi South 5.8 mph - N/A   Clear
1:54 AM 64.0 °F - 61.0 °F 90% 30.08 in 10.0 mi South 6.9 mph - N/A   Clear
2:54 AM 63.0 °F - 60.1 °F 90% 30.08 in 10.0 mi South 5.8 mph - N/A   Clear
3:54 AM 63.0 °F - 61.0 °F 93% 30.07 in 10.0 mi South 4.6 mph - N/A   Clear
4:54 AM 63.0 °F - 60.1 °F 90% 30.08 in 10.0 mi South 4.6 mph - N/A   Clear
5:54 AM 62.1 °F - 59.0 °F 90% 30.09 in 10.0 mi South 6.9 mph - N/A   Clear
6:37 AM 63.0 °F - 61.0 °F 93% 30.12 in 10.0 mi South 5.8 mph - N/A   Mostly Cloudy
6:50 AM 62.6 °F - 60.8 °F 94% 30.12 in 10.0 mi SSE 3.5 mph - N/A   Overcast
6:54 AM 63.0 °F - 61.0 °F 93% 30.11 in 10.0 mi SSE 3.5 mph - N/A   Overcast
7:54 AM 62.1 °F - 60.1 °F 93% 30.12 in 6.0 mi South 5.8 mph - N/A   Clear
8:54 AM 66.0 °F - 63.0 °F 90% 30.13 in 10.0 mi South 6.9 mph - N/A   Mostly Cloudy
9:09 AM 66.9 °F - 63.0 °F 87% 30.16 in 10.0 mi South 6.9 mph - N/A   Overcast
9:54 AM 69.1 °F - 64.9 °F 87% 30.14 in 10.0 mi South 5.8 mph - N/A   Overcast
10:23 AM 70.0 °F - 64.9 °F 84% 30.16 in 10.0 mi South 6.9 mph - N/A   Overcast
10:54 AM 73.9 °F - 66.0 °F 76% 30.14 in 10.0 mi South 3.5 mph - N/A   Partly Cloudy
11:54 AM 78.1 °F - 68.0 °F 71% 30.12 in 10.0 mi Variable 3.5 mph - N/A   Scattered Clouds
12:54 PM 80.1 °F 82.7 °F 68.0 °F 67% 30.11 in 10.0 mi SSW 4.6 mph - N/A   Scattered Clouds
1:54 PM 80.1 °F 82.3 °F 66.9 °F 64% 30.09 in 10.0 mi Calm Calm - N/A   Mostly Cloudy
2:54 PM 81.0 °F 83.0 °F 66.0 °F 60% 30.06 in 10.0 mi SW 5.8 mph - N/A   Overcast
3:54 PM 80.1 °F 82.7 °F 68.0 °F 67% 30.06 in 10.0 mi NNW 4.6 mph - 0.00 in   Mostly Cloudy
4:54 PM 80.1 °F 82.7 °F 68.0 °F 67% 30.05 in 10.0 mi West 3.5 mph - N/A   Mostly Cloudy
5:54 PM 79.0 °F - 68.0 °F 69% 30.05 in 10.0 mi SW 9.2 mph - N/A   Partly Cloudy
6:54 PM 75.0 °F - 69.1 °F 82% 30.06 in 10.0 mi SW 6.9 mph - N/A   Overcast
7:54 PM 73.0 °F - 66.9 °F 81% 30.07 in 10.0 mi SSW 4.6 mph - N/A   Overcast
8:54 PM 72.0 °F - 68.0 °F 87% 30.07 in 10.0 mi SW 5.8 mph - N/A   Overcast
9:54 PM 72.0 °F - 68.0 °F 87% 30.09 in 9.0 mi Calm Calm - N/A   Overcast
10:54 PM 71.1 °F - 68.0 °F 90% 30.09 in 10.0 mi South 4.6 mph - N/A   Overcast
11:54 PM 70.0 °F - 66.9 °F 90% 30.09 in 8.0 mi SSW 8.1 mph - N/A   Mostly Cloudy